CST,Max TemperatureF,Mean TemperatureF,Min TemperatureF,Max Dew PointF,MeanDew PointF,Min DewpointF,Max Humidity, Mean Humidity, Min Humidity, Max Sea Level PressureIn, Mean Sea Level PressureIn, Min Sea Level PressureIn, Max VisibilityMiles, Mean VisibilityMiles, Min VisibilityMiles, Max Wind SpeedMPH, Mean Wind SpeedMPH, Max Gust SpeedMPH,PrecipitationIn, CloudCover, Events, WindDirDegrees
2013-11-1,49,47,44,45,41,37,93,80,61,29.75,29.61,29.40,10,8,4,28,13,38,0.08,8,Rain,264
2013-11-2,48,44,39,43,39,36,97,83,61,30.15,29.95,29.74,10,8,5,17,7,22,0.02,7,Rain,299
2013-11-3,52,43,34,39,35,31,96,72,38,30.32,30.27,30.17,10,10,10,15,6,18,0.00,4,,153
2013-11-4,57,51,44,43,38,35,73,61,39,30.30,30.22,30.14,10,10,10,23,13,33,0.00,7,,170
2013-11-5,56,54,51,52,47,43,94,78,54,30.28,30.18,29.98,10,9,2,22,9,31,0.02,8,Rain,178
2013-11-6,57,47,37,55,45,25,94,85,62,30.19,29.94,29.81,10,7,2,26,14,36,0.92,7,Rain,247
2013-11-7,45,38,31,32,29,25,85,70,53,30.27,30.24,30.18,10,10,10,18,9,26,0.00,3,,267
2013-11-8,48,39,29,31,29,27,92,65,37,30.37,30.23,29.99,10,10,10,22,9,31,0.00,4,,211
2013-11-9,59,51,43,39,35,23,66,54,37,30.12,29.95,29.88,10,10,10,29,18,38,0.00,3,,249
2013-11-10,49,42,35,31,28,24,72,57,33,30.35,30.28,30.14,10,10,10,22,9,31,0.00,3,,259
2013-11-11,48,37,26,38,29,16,100,75,46,30.52,30.25,30.11,10,6,0,22,13,29,0.10,8,Fog-Rain-Snow,331
2013-11-12,34,29,23,19,16,13,71,59,31,30.74,30.66,30.54,10,10,10,18,11,24,0.00,1,,303
2013-11-13,40,30,20,22,17,13,78,57,27,30.63,30.45,30.21,10,10,10,23,14,31,0.00,2,,223
2013-11-14,50,41,31,27,23,20,64,49,27,30.19,30.07,29.98,10,10,10,24,14,31,0.00,4,,210
2013-11-15,49,44,38,37,31,27,71,59,40,30.02,29.99,29.96,10,10,10,17,11,23,0.00,5,,202
2013-11-16,61,52,43,57,49,37,94,87,76,29.96,29.78,29.59,10,6,2,28,15,38,0.30,8,Rain,176
2013-11-17,69,56,43,62,52,35,94,81,55,29.73,29.44,29.20,10,8,1,43,21,59,0.77,7,Rain-Thunderstorm,222
2013-11-18,43,37,31,35,28,23,76,64,38,30.29,30.02,29.76,10,10,10,28,16,36,0.00,3,,284
2013-11-19,41,34,26,32,26,21,82,70,53,30.41,30.35,30.30,10,10,10,13,6,16,0.00,3,,64
2013-11-20,44,38,31,38,29,25,89,69,41,30.33,30.24,30.14,10,9,6,20,8,25,0.16,6,Rain,144
2013-11-21,51,46,41,46,42,38,100,85,65,30.21,30.17,30.13,10,6,2,13,6,17,0.05,8,Rain,208
2013-11-22,44,36,28,40,31,20,89,78,56,30.50,30.39,30.22,10,8,3,21,10,26,0.03,6,Rain,334
2013-11-23,29,23,16,18,8,1,69,51,26,30.74,30.60,30.46,10,10,10,24,16,30,0.00,2,,322
2013-11-24,27,20,12,10,4,-1,71,49,20,30.77,30.64,30.44,10,10,10,15,9,23,0.00,1,,256
2013-11-25,32,27,22,27,20,9,86,70,41,30.40,30.19,30.09,10,8,2,22,13,28,0.00,8,Snow,221
2013-11-26,36,27,18,27,20,4,79,67,39,30.19,30.10,30.02,10,9,5,25,12,32,T,8,Snow,291
2013-11-27,29,22,14,12,8,4,68,54,25,30.30,30.25,30.18,10,10,10,22,12,25,0.00,3,,308
2013-11-28,34,29,23,16,13,10,72,53,32,30.53,30.33,30.23,10,10,10,20,10,30,0.00,4,,255
2013-11-29,37,28,18,21,17,14,81,61,37,30.67,30.58,30.44,10,10,10,12,6,21,0.00,5,,191
2013-11-30,51,41,31,29,26,20,73,57,30,30.42,30.21,30.08,10,10,10,16,9,25,0.00,3,,197